STARLINK-4408, 53206

Orbit data source: Space-Track

STARLINK-4408, 53206 is a payload satellite owned by SpaceX/Seattle (US) in SSO that was launched on Fri, 22 Jul 2022 UTC via an FALCON 9 launch vehicle from the Air Force Western Test Range (AFWTR). Payload-class satellites include a variety of spacecraft equipped with specific instruments for various scientific and technological missions. These include communications satellites like Starlink; space stations such as the ISS; scientific satellites like the Hubble; Earth observation satellites from companies like Planet Labs, Umbra, and HawkEye 360; GPS; miniature CubeSats for education and research; and military/defense satellites.

Loading next visibility...
Identifier
53206, 2022-084T
Orbit
SSO
Country
Flag of USUS
Related business
Manufacturer
SpaceX/Seattle
Mission
Operational Commercial Communications
Bus & Motor
STARLINK, Unknown motor
Mass
297 kg wet, ~275 kg dry
Launch date (UTC)
2022-07-22 (4 years ago)
Launch vehicle
FALCON 9
Launch site
Air Force Western Test Range (AFWTR)
Object type
Payload
Rocket body
Debris
Shape & HBR
Box + 1 Pan, 10.1 m
Radar Cross Section
13.562 m², Large (>1 m²)

Expand to show TLE details & history
Last TLE update: 3 days ago

TLE from 3 days ago
0 STARLINK-4408
1 53206U 22084T   26170.73425516 -.00001647  00000-0 -11023-3 0  9991
2 53206  97.3384 230.7244 0002467  96.7547 263.3962 15.05655568214735
Epoch: 2026-06-19T17:37Z
TLE epoch observation values (Epoch: 2026-06-19T17:37:19.645Z)
Latitude
0.00002°
Longitude
58.43356°
Altitude
552.764 km
Speed
7.585 km/s
True Right ascension
15h 22m 53s
True Declination
0° 00' 00"
Sunlit
Object was in full shadow at epoch
Visualization orbit readout
Latitude
Unknown
Longitude
Unknown
Altitude
Unknown
Speed
Unknown
Apparent Right ascension
Unknown
Apparent Declination
Unknown
Sunlit
N/A
Visualization observer readout
Local Sidereal Time
21:28:43
Azimuth
Unknown
Elevation
Unknown
Doppler factor
Unknown
Orbital elements
Apogee altitude
548.185 km
Perigee altitude
544.768 km
Semi-major axis
6,924.613 km
Eccentricity
0.00025
Inclination
97.3384°
RAAN
230.7244°
Arg. of periapsis
96.7547°
True anomaly
263.36812°
Mean anomaly
263.3962°
Eccentric anomaly
263.38216°
Mean motion
3.7666 °/min
Orbital period
95.58 mins
BSTAR
-0.00011023
Loading maneuver chart data...
Computing Atmospheric mass density...
Loading historical data...
Loading historical data...
Loading historical data...
Loading historical data...
Loading historical data...
Loading historical data...
Loading historical data...

Documentation

Showing up to 5 results
|